Weather History for Chester, CT

Change the Weather History Date:

Saturday, March 8, 2014

  Actual Average (KHVN) Record (KHVN)
Temperature  
Mean Temperature 42 °F -  
Max Temperature 53 °F 41 °F 75 °F (1987)
Min Temperature 32 °F 27 °F 12 °F (1984)
Degree Days  
Heating Degree Days 22    
Moisture  
Dew Point 25 °F    
Average Humidity 54    
Maximum Humidity 75    
Minimum Humidity 37    
Precipitation  
Precipitation 0.00 in - - ()
Sea Level Pressure  
Sea Level Pressure 29.81 in    
Wind  
Wind Speed 8 mph (NNW)    
Max Wind Speed 15 mph    
Max Gust Speed 22 mph    
Visibility 10 miles    
Events      
Averages and records for this station are not official NWS values.
T = Trace of Precipitation, MM = Missing Value Source: NWS Daily Summary

Daily Weather History Graph

Daily Weather History Graph

Search for Another Location

Airport:

Trip Planner

Search our weather history database for the weather conditions in past years. The results will help you decide how hot, cold, wet, or windy it might be!

Date:

Astronomy

Mar. 08, 2014 Rise Set
Actual Time 6:13 AM EST 5:48 PM EST
Civil Twilight 5:45 AM EST 6:16 PM EST
Nautical Twilight 5:13 AM EST 6:48 PM EST
Astronomical Twilight 4:41 AM EST 7:20 PM EST
Moon 10:48 AM EST (3/8) 12:48 AM EST (3/8)
Length of Visible Light 12h 30m
Length of Day
11h 35m
First Quarter, 51% of the Moon is Illuminated
Mar 8
First Quarter
Mar 16
Full
Mar 23
Last Quarter
Mar 30
New
Apr 7
First Quarter

Hourly Weather History & Observations

Time (EST) Temp. Windchill Dew Point Humidity Pressure Visibility Wind Dir Wind Speed Gust Speed Precip Events Conditions
12:15 AM 32.0 °F 24.8 °F 21.2 °F 64% 29.90 in 10.0 mi North 8.1 mph - N/A   Mostly Cloudy
12:35 AM 32.0 °F 26.4 °F 21.2 °F 64% 29.89 in 10.0 mi North 5.8 mph - N/A   Partly Cloudy
12:55 AM 32.0 °F 25.6 °F 21.2 °F 64% 29.89 in 10.0 mi North 6.9 mph - N/A   Clear
1:35 AM 32.0 °F 24.2 °F 21.2 °F 64% 29.86 in 10.0 mi North 9.2 mph - N/A   Clear
1:55 AM 32.0 °F 25.6 °F 21.2 °F 64% 29.85 in 10.0 mi North 6.9 mph - N/A   Clear
2:15 AM 32.0 °F 25.6 °F 21.2 °F 64% 29.84 in 10.0 mi NNW 6.9 mph - N/A   Clear
2:35 AM 32.0 °F 25.6 °F 21.2 °F 64% 29.84 in 10.0 mi NNW 6.9 mph - N/A   Clear
2:55 AM 32.0 °F 24.8 °F 21.2 °F 64% 29.83 in 10.0 mi NNW 8.1 mph - N/A   Clear
3:15 AM 32.0 °F 25.6 °F 21.2 °F 64% 29.83 in 10.0 mi North 6.9 mph - N/A   Clear
3:35 AM 32.0 °F 25.6 °F 23.0 °F 69% 29.83 in 10.0 mi NNW 6.9 mph - N/A   Clear
3:55 AM 32.0 °F 26.4 °F 21.2 °F 64% 29.82 in 10.0 mi NNW 5.8 mph - N/A   Clear
4:15 AM 32.0 °F 26.4 °F 21.2 °F 64% 29.82 in 10.0 mi North 5.8 mph - N/A   Clear
4:35 AM 32.0 °F 26.4 °F 21.2 °F 64% 29.81 in 10.0 mi NNW 5.8 mph - N/A   Clear
4:55 AM 32.0 °F 25.6 °F 21.2 °F 64% 29.82 in 10.0 mi NNW 6.9 mph - N/A   Clear
5:15 AM 32.0 °F 26.4 °F 21.2 °F 64% 29.82 in 10.0 mi NNW 5.8 mph - N/A   Clear
5:35 AM 32.0 °F 26.4 °F 21.2 °F 64% 29.81 in 10.0 mi NNW 5.8 mph - N/A   Clear
5:55 AM 32.0 °F 26.4 °F 19.4 °F 60% 29.82 in 10.0 mi NNW 5.8 mph - N/A   Clear
6:15 AM 32.0 °F 26.4 °F 19.4 °F 60% 29.81 in 10.0 mi NNW 5.8 mph - N/A   Clear
6:35 AM 32.0 °F 27.5 °F 19.4 °F 60% 29.82 in 10.0 mi NNW 4.6 mph - N/A   Clear
6:55 AM 32.0 °F 28.7 °F 19.4 °F 60% 29.82 in 10.0 mi NNW 3.5 mph - N/A   Clear
7:15 AM 32.0 °F 28.7 °F 21.2 °F 64% 29.82 in 10.0 mi NW 3.5 mph - N/A   Clear
7:35 AM 32.0 °F 25.6 °F 21.2 °F 64% 29.83 in 10.0 mi NNW 6.9 mph - N/A   Clear
7:55 AM 33.8 °F 28.6 °F 24.8 °F 70% 29.83 in 10.0 mi NNW 5.8 mph - N/A   Clear
8:15 AM 35.6 °F 30.7 °F 28.4 °F 75% 29.83 in 10.0 mi NNW 5.8 mph - N/A   Clear
8:35 AM 37.4 °F 33.8 °F 28.4 °F 70% 29.84 in 10.0 mi North 4.6 mph - N/A   Clear
8:55 AM 39.2 °F 35.0 °F 28.4 °F 65% 29.84 in 10.0 mi NW 5.8 mph - N/A   Clear
9:15 AM 42.8 °F 38.6 °F 26.6 °F 53% 29.83 in 10.0 mi NNW 6.9 mph - N/A   Clear
9:35 AM 42.8 °F 38.0 °F 26.6 °F 53% 29.82 in 10.0 mi NNW 8.1 mph - N/A   Clear
9:55 AM 44.6 °F 42.2 °F 26.6 °F 49% 29.81 in 10.0 mi North 4.6 mph - N/A   Clear
10:15 AM 46.4 °F 42.9 °F 26.6 °F 46% 29.81 in 10.0 mi NNW 6.9 mph - N/A   Clear
10:35 AM 46.4 °F 41.5 °F 26.6 °F 46% 29.81 in 10.0 mi NNW 10.4 mph - N/A   Clear
10:55 AM 48.2 °F - 26.6 °F 43% 29.80 in 10.0 mi North 6.9 mph - N/A   Clear
11:15 AM 51.8 °F - 26.6 °F 38% 29.80 in 10.0 mi North 5.8 mph - N/A   Clear
11:35 AM 51.8 °F - 26.6 °F 38% 29.79 in 10.0 mi North 5.8 mph - N/A   Clear
11:55 AM 50.0 °F - 26.6 °F 40% 29.78 in 10.0 mi West 8.1 mph - N/A   Partly Cloudy
12:15 PM 50.0 °F - 28.4 °F 43% 29.77 in 10.0 mi WNW 8.1 mph - N/A   Mostly Cloudy
12:35 PM 48.2 °F - 28.4 °F 46% 29.76 in 10.0 mi WNW 6.9 mph - N/A   Mostly Cloudy
12:55 PM 50.0 °F - 28.4 °F 43% 29.76 in 9.0 mi NNW 10.4 mph 18.4 mph N/A   Partly Cloudy
1:15 PM 51.8 °F - 28.4 °F 41% 29.74 in 10.0 mi WNW 6.9 mph - N/A   Clear
1:35 PM 51.8 °F - 28.4 °F 41% 29.74 in 10.0 mi NNW 9.2 mph - N/A   Clear
1:55 PM 53.6 °F - 28.4 °F 38% 29.73 in 10.0 mi SW 6.9 mph - N/A   Scattered Clouds
2:15 PM 51.8 °F - 26.6 °F 38% 29.74 in 10.0 mi WNW 10.4 mph 19.6 mph N/A   Mostly Cloudy
2:35 PM 51.8 °F - 26.6 °F 38% 29.74 in 10.0 mi NW 12.7 mph 17.3 mph N/A   Mostly Cloudy
2:55 PM 51.8 °F - 26.6 °F 38% 29.74 in 10.0 mi NW 12.7 mph 20.7 mph N/A   Scattered Clouds
3:15 PM 51.8 °F - 26.6 °F 38% 29.75 in 10.0 mi NW 10.4 mph 21.9 mph N/A   Clear
3:35 PM 51.8 °F - 26.6 °F 38% 29.74 in 10.0 mi WNW 10.4 mph 18.4 mph N/A   Clear
3:55 PM 51.8 °F - 26.6 °F 38% 29.74 in 10.0 mi NW 12.7 mph - N/A   Clear
4:15 PM 51.8 °F - 26.6 °F 38% 29.75 in 10.0 mi WNW 9.2 mph 18.4 mph N/A   Clear
4:35 PM 51.8 °F - 26.6 °F 38% 29.75 in 10.0 mi WNW 9.2 mph 19.6 mph N/A   Clear
4:55 PM 50.0 °F - 26.6 °F 40% 29.76 in 10.0 mi NW 10.4 mph 18.4 mph N/A   Clear
5:15 PM 50.0 °F - 24.8 °F 37% 29.77 in 10.0 mi NNW 12.7 mph - N/A   Clear
5:35 PM 48.2 °F - 26.6 °F 43% 29.78 in 10.0 mi NNW 13.8 mph 17.3 mph N/A   Clear
5:55 PM 46.4 °F 42.4 °F 26.6 °F 46% 29.78 in 10.0 mi NNW 8.1 mph - N/A   Clear
6:15 PM 46.4 °F 42.4 °F 26.6 °F 46% 29.80 in 10.0 mi NW 8.1 mph - N/A   Clear
6:35 PM 46.4 °F 42.4 °F 26.6 °F 46% 29.81 in 10.0 mi NW 8.1 mph - N/A   Clear
6:55 PM 44.6 °F 40.2 °F 26.6 °F 49% 29.82 in 10.0 mi NW 8.1 mph - N/A   Clear
7:15 PM 44.6 °F 39.7 °F 26.6 °F 49% 29.82 in 10.0 mi NW 9.2 mph - N/A   Clear
7:35 PM 44.6 °F 40.2 °F 26.6 °F 49% 29.83 in 10.0 mi NNW 8.1 mph - N/A   Clear
7:55 PM 42.8 °F 37.5 °F 26.6 °F 53% 29.84 in 10.0 mi NNW 9.2 mph - N/A   Clear
8:15 PM 42.8 °F 35.4 °F 26.6 °F 53% 29.84 in 10.0 mi North 15.0 mph 20.7 mph N/A   Clear
8:35 PM 42.8 °F 35.4 °F 28.4 °F 57% 29.85 in 9.0 mi NNW 15.0 mph 20.7 mph N/A   Clear
8:55 PM 42.8 °F 37.0 °F 28.4 °F 57% 29.85 in 9.0 mi NNW 10.4 mph 16.1 mph N/A   Clear
9:15 PM 41.0 °F 34.3 °F 28.4 °F 61% 29.85 in 10.0 mi NNW 11.5 mph 16.1 mph N/A   Clear
9:35 PM 41.0 °F 34.7 °F 28.4 °F 61% 29.86 in 10.0 mi NNW 10.4 mph 16.1 mph N/A   Scattered Clouds
9:55 PM 39.2 °F 32.0 °F 28.4 °F 65% 29.86 in 10.0 mi NNW 11.5 mph - N/A   Mostly Cloudy
10:15 PM 39.2 °F 33.0 °F 28.4 °F 65% 29.86 in 10.0 mi NNW 9.2 mph - N/A   Mostly Cloudy
10:35 PM 39.2 °F 32.5 °F 28.4 °F 65% 29.86 in 10.0 mi NNW 10.4 mph 19.6 mph N/A   Mostly Cloudy
10:55 PM 39.2 °F 32.0 °F 28.4 °F 65% 29.86 in 10.0 mi NNW 11.5 mph 16.1 mph N/A   Overcast
11:15 PM 39.2 °F 33.6 °F 28.4 °F 65% 29.87 in 10.0 mi NNW 8.1 mph - N/A   Mostly Cloudy
11:35 PM 39.2 °F 32.5 °F 28.4 °F 65% 29.86 in 10.0 mi NNW 10.4 mph - N/A   Scattered Clouds
11:55 PM 37.4 °F 29.8 °F 28.4 °F 70% 29.86 in 10.0 mi NNW 11.5 mph - N/A   Scattered Clouds